Weather History for KLUK - August, 2013

Change the Weather History Date:

Saturday, August 3, 2013

  Actual Average (KCVG) Record (KCVG)
Temperature  
Mean Temperature 74 °F 76 °F  
Max Temperature 82 °F 85 °F 101 °F (1964)
Min Temperature 64 °F 66 °F 46 °F (1965)
Degree Days  
Heating Degree Days 0 0  
Month to date heating degree days 0  
Since 1 June heating degree days 15  
Since 1 July heating degree days 0  
Cooling Degree Days 8 11  
Month to date cooling degree days 33  
Year to date cooling degree days 692  
Since 1 June cooling degree days 598  
Growing Degree Days 24 (Base 50)    
Moisture  
Dew Point 67 °F    
Average Humidity 82    
Maximum Humidity 100    
Minimum Humidity 60    
Precipitation  
Precipitation 0.05 in 0.12 in 2.34 in (1900)
Month to date precipitation 0.37  
Year to date precipitation 26.75  
Snow  
Snow 0.00 in 0.00 in 0.00 in ()
Month to date snowfall 0.0  
Since 1 June snowfall 0.0  
Since 1 July snowfall 0.0  
Snow Depth -    
Sea Level Pressure  
Sea Level Pressure 29.99 in    
Wind  
Wind Speed 2 mph (NNW)    
Max Wind Speed 13 mph    
Max Gust Speed -    
Visibility 9 miles    
Events Rain    
T = Trace of Precipitation, MM = Missing Value Source: NWS Daily Summary

Daily Weather History Graph

Daily Weather History Graph

Search for Another Location

Airport or City:

Trip Planner

Search our weather history database for the weather conditions in past years. The results will help you decide how hot, cold, wet, or windy it might be!

Date:

Astronomy

Aug. 03, 2013 Rise Set
Actual Time 6:40 AM EDT 8:46 PM EDT
Civil Twilight 6:10 AM EDT 9:16 PM EDT
Nautical Twilight 5:34 AM EDT 9:52 PM EDT
Astronomical Twilight 4:54 AM EDT 10:31 PM EDT
Moon 3:49 AM EDT (8/3) 6:28 PM EDT (8/3)
Length of Visible Light 15h 05m
Length of Day
14h 06m
Waning Crescent, 9% of the Moon is Illuminated
Aug 3
Waning Crescent
Aug 6
New
Aug 14
First Quarter
Aug 20
Full
Aug 28
Last Quarter

Hourly Weather History & Observations

Time (EDT) Temp. Heat Index Dew Point Humidity Pressure Visibility Wind Dir Wind Speed Gust Speed Precip Events Conditions
12:53 AM 73.0 °F - 64.9 °F 76% 29.97 in 10.0 mi Calm Calm - N/A   Overcast
1:53 AM 71.1 °F - 66.9 °F 87% 29.99 in 10.0 mi Calm Calm - N/A   Overcast
2:53 AM 70.0 °F - 66.9 °F 90% 29.98 in 10.0 mi Calm Calm - N/A   Overcast
3:53 AM 69.1 °F - 66.9 °F 93% 29.97 in 10.0 mi Calm Calm - 0.00 in   Overcast
4:53 AM 69.1 °F - 68.0 °F 96% 29.97 in 8.0 mi Calm Calm - N/A   Overcast
5:53 AM 69.1 °F - 66.9 °F 93% 29.98 in 9.0 mi Calm Calm - 0.00 in Rain Light Rain
6:53 AM 69.1 °F - 68.0 °F 96% 29.99 in 7.0 mi Calm Calm - 0.00 in   Mostly Cloudy
7:53 AM 69.1 °F - 68.0 °F 96% 29.99 in 4.0 mi Calm Calm - 0.00 in Rain Light Rain
8:53 AM 69.1 °F - 69.1 °F 100% 29.99 in 3.0 mi Calm Calm - 0.05 in Rain Light Rain
9:53 AM 71.1 °F - 68.0 °F 90% 30.00 in 7.0 mi WSW 4.6 mph - 0.00 in Rain Light Rain
10:53 AM 70.0 °F - 66.0 °F 87% 29.99 in 10.0 mi Calm Calm - 0.00 in   Overcast
11:53 AM 72.0 °F - 66.0 °F 81% 30.01 in 10.0 mi SW 3.5 mph - N/A   Overcast
12:53 PM 73.9 °F - 66.9 °F 79% 30.01 in 10.0 mi Calm Calm - N/A   Overcast
1:53 PM 77.0 °F - 68.0 °F 74% 30.01 in 10.0 mi Calm Calm - N/A   Overcast
2:53 PM 78.1 °F - 68.0 °F 71% 30.00 in 10.0 mi North 6.9 mph - N/A   Overcast
3:53 PM 81.0 °F 84.1 °F 69.1 °F 67% 29.98 in 10.0 mi NNW 8.1 mph - N/A   Overcast
4:01 PM 78.8 °F - 69.8 °F 74% 29.99 in 10.0 mi North 6.9 mph - N/A   Mostly Cloudy
4:53 PM 81.0 °F 83.8 °F 68.0 °F 65% 29.98 in 10.0 mi Variable 5.8 mph - N/A   Mostly Cloudy
5:53 PM 79.0 °F - 66.0 °F 64% 29.98 in 10.0 mi North 12.7 mph - N/A   Mostly Cloudy
6:53 PM 81.0 °F 83.0 °F 66.0 °F 60% 29.97 in 10.0 mi NNE 8.1 mph - N/A   Mostly Cloudy
7:53 PM 78.1 °F - 64.0 °F 62% 29.98 in 10.0 mi NNE 3.5 mph - N/A   Partly Cloudy
8:53 PM 72.0 °F - 64.9 °F 78% 29.99 in 10.0 mi Calm Calm - N/A   Clear
9:53 PM 68.0 °F - 64.0 °F 87% 30.01 in 10.0 mi Calm Calm - N/A   Clear
10:53 PM 66.0 °F - 63.0 °F 90% 30.02 in 10.0 mi Calm Calm - N/A   Clear
11:53 PM 64.0 °F - 63.0 °F 96% 30.04 in 10.0 mi Calm Calm - N/A   Mostly Cloudy